When you browse on this site, cookies collect data to enhance your experience and personalize the content and advertising you see.
Visit our Privacy Policy to learn more. By continuing to use the site, you agree to this use of cookies and data.
  • Em Portugal
  • Lista de países
  • Para 7 dias
  • Temperatura da água
  • Mapas de satélite
  • Mapa do tempo
  • Widgets de tempo
  • user-avatar
    Iniciar Sessão

    Previsão horária em Brzezniak

    Hoje, 20 Junho, Quinta-feira

    Tempo Temperatura Precipitação Vento Pressão Humidade
    00:00 +21°C° 0 mm 1 m/s 748 mmHg 80%
    01:00 +21°C° 0 mm 1 m/s 748 mmHg 81%
    02:00 +21°C° 0 mm 1 m/s 747 mmHg 80%
    03:00 +21°C° 0 mm 1 m/s 747 mmHg 80%
    04:00 +21°C° 0 mm 1 m/s 747 mmHg 79%
    05:00 +21°C° 0 mm 2 m/s 747 mmHg 77%
    06:00 +23°C° 0 mm 2 m/s 747 mmHg 75%
    07:00 +25°C° 0 mm 2 m/s 748 mmHg 74%
    08:00 +26°C° 0 mm 2 m/s 748 mmHg 68%
    09:00 +28°C° 0 mm 2 m/s 748 mmHg 63%
    10:00 +29°C° 0 mm 2 m/s 748 mmHg 57%
    11:00 +30°C° 0 mm 3 m/s 748 mmHg 54%
    12:00 +30°C° 0 mm 3 m/s 747 mmHg 51%
    13:00 +31°C° 0 mm 3 m/s 747 mmHg 48%
    14:00 +31°C° 0 mm 3 m/s 747 mmHg 49%
    15:00 +31°C° 0 mm 3 m/s 747 mmHg 50%
    16:00 +31°C° 0 mm 3 m/s 747 mmHg 51%
    17:00 +30°C° 0 mm 2 m/s 747 mmHg 55%
    18:00 +29°C° 0 mm 2 m/s 747 mmHg 60%
    19:00 +27°C° 0 mm 2 m/s 748 mmHg 64%
    20:00 +25°C° 0.6 mm 2 m/s 748 mmHg 72%
    21:00 +23°C° 0.6 mm 2 m/s 748 mmHg 81%
    22:00 +20°C° 0.6 mm 2 m/s 749 mmHg 89%
    23:00 +20°C° 0.5 mm 3 m/s 749 mmHg 90%

    Amanhã, 21 Junho, Sexta-feira

    Tempo Temperatura Precipitação Vento Pressão Humidade
    00:00 +19°C° 0.5 mm 3 m/s 749 mmHg 91%
    01:00 +19°C° 0.5 mm 4 m/s 749 mmHg 91%
    02:00 +19°C° 0 mm 3 m/s 750 mmHg 91%
    03:00 +19°C° 0 mm 3 m/s 750 mmHg 91%
    04:00 +19°C° 0 mm 2 m/s 750 mmHg 91%
    05:00 +20°C° 0 mm 2 m/s 750 mmHg 88%
    06:00 +21°C° 0 mm 2 m/s 751 mmHg 85%
    07:00 +23°C° 0 mm 2 m/s 751 mmHg 83%
    08:00 +23°C° 0.5 mm 2 m/s 751 mmHg 83%
    09:00 +23°C° 0.5 mm 2 m/s 751 mmHg 83%
    10:00 +21°C° 0.5 mm 2 m/s 752 mmHg 84%
    11:00 +23°C° 0.2 mm 2 m/s 752 mmHg 78%
    12:00 +24°C° 0.2 mm 2 m/s 752 mmHg 72%
    13:00 +25°C° 0.2 mm 2 m/s 752 mmHg 67%
    14:00 +25°C° 0.3 mm 2 m/s 752 mmHg 67%
    15:00 +26°C° 0.3 mm 3 m/s 752 mmHg 67%
    16:00 +26°C° 0.3 mm 3 m/s 752 mmHg 67%
    17:00 +25°C° 0.3 mm 3 m/s 752 mmHg 72%
    18:00 +24°C° 0.3 mm 3 m/s 752 mmHg 77%
    19:00 +22°C° 0.3 mm 3 m/s 752 mmHg 83%
    20:00 +21°C° 0 mm 3 m/s 753 mmHg 86%
    21:00 +19°C° 0 mm 3 m/s 753 mmHg 89%
    22:00 +18°C° 0 mm 3 m/s 754 mmHg 92%
    23:00 +18°C° 0 mm 3 m/s 754 mmHg 93%

    Depois de amanhã, 22 Junho, Sábado

    Tempo Temperatura Precipitação Vento Pressão Humidade
    00:00 +17°C° 0 mm 3 m/s 754 mmHg 94%
    01:00 +16°C° 0 mm 3 m/s 755 mmHg 95%
    02:00 +16°C° 0 mm 3 m/s 755 mmHg 94%
    03:00 +14°C° 0 mm 3 m/s 755 mmHg 94%
    04:00 +14°C° 0 mm 3 m/s 755 mmHg 93%
    05:00 +16°C° 0 mm 3 m/s 756 mmHg 89%
    06:00 +17°C° 0 mm 3 m/s 756 mmHg 84%
    07:00 +18°C° 0 mm 4 m/s 756 mmHg 79%
    08:00 +19°C° 0 mm 4 m/s 756 mmHg 73%
    09:00 +20°C° 0 mm 4 m/s 757 mmHg 66%
    10:00 +21°C° 0 mm 4 m/s 757 mmHg 60%
    11:00 +22°C° 0 mm 4 m/s 757 mmHg 59%
    12:00 +22°C° 0 mm 4 m/s 756 mmHg 57%
    13:00 +23°C° 0 mm 4 m/s 756 mmHg 56%
    14:00 +23°C° 0 mm 5 m/s 756 mmHg 58%
    15:00 +23°C° 0 mm 5 m/s 756 mmHg 59%
    16:00 +23°C° 0 mm 5 m/s 756 mmHg 60%
    17:00 +22°C° 0 mm 5 m/s 756 mmHg 65%
    18:00 +21°C° 0 mm 5 m/s 756 mmHg 71%
    19:00 +19°C° 0 mm 5 m/s 756 mmHg 76%
    20:00 +17°C° 0 mm 5 m/s 756 mmHg 74%
    21:00 +16°C° 0 mm 5 m/s 756 mmHg 73%
    22:00 +15°C° 0 mm 5 m/s 757 mmHg 71%
    23:00 +14°C° 0 mm 5 m/s 757 mmHg 74%

    23 Junho, Domingo

    Tempo Temperatura Precipitação Vento Pressão Humidade
    00:00 +14°C° 0 mm 5 m/s 757 mmHg 77%
    01:00 +13°C° 0 mm 5 m/s 757 mmHg 80%
    02:00 +13°C° 0 mm 4 m/s 757 mmHg 78%
    03:00 +13°C° 0 mm 4 m/s 757 mmHg 76%
    04:00 +13°C° 0 mm 4 m/s 757 mmHg 74%
    05:00 +13°C° 0 mm 4 m/s 757 mmHg 73%
    06:00 +13°C° 0 mm 4 m/s 757 mmHg 73%
    07:00 +13°C° 0 mm 4 m/s 757 mmHg 72%
    08:00 +15°C° 0 mm 4 m/s 757 mmHg 70%
    09:00 +17°C° 0 mm 4 m/s 757 mmHg 67%
    10:00 +19°C° 0 mm 4 m/s 758 mmHg 65%
    11:00 +20°C° 0 mm 4 m/s 757 mmHg 63%
    12:00 +21°C° 0 mm 4 m/s 757 mmHg 60%
    13:00 +22°C° 0 mm 4 m/s 757 mmHg 58%
    14:00 +22°C° 0 mm 4 m/s 757 mmHg 58%
    15:00 +22°C° 0 mm 4 m/s 757 mmHg 57%
    16:00 +22°C° 0 mm 5 m/s 757 mmHg 57%
    17:00 +21°C° 0 mm 4 m/s 757 mmHg 62%
    18:00 +20°C° 0 mm 4 m/s 757 mmHg 67%
    19:00 +19°C° 0 mm 3 m/s 757 mmHg 72%
    20:00 +17°C° 0 mm 3 m/s 758 mmHg 78%
    21:00 +16°C° 0 mm 3 m/s 758 mmHg 83%
    22:00 +13°C° 0 mm 3 m/s 759 mmHg 89%
    23:00 +13°C° 0 mm 3 m/s 759 mmHg 91%

    24 Junho, Segunda-feira

    Tempo Temperatura Precipitação Vento Pressão Humidade
    00:00 +12°C° 0 mm 3 m/s 759 mmHg 92%
    01:00 +12°C° 0 mm 3 m/s 759 mmHg 94%
    02:00 +12°C° 0 mm 3 m/s 759 mmHg 94%
    03:00 +11°C° 0 mm 3 m/s 759 mmHg 94%
    04:00 +11°C° 0 mm 3 m/s 759 mmHg 94%
    05:00 +13°C° 0 mm 3 m/s 759 mmHg 88%
    06:00 +14°C° 0 mm 3 m/s 760 mmHg 82%
    07:00 +17°C° 0 mm 3 m/s 760 mmHg 75%
    08:00 +18°C° 0 mm 3 m/s 760 mmHg 69%
    09:00 +20°C° 0 mm 3 m/s 760 mmHg 63%
    10:00 +21°C° 0 mm 3 m/s 760 mmHg 57%
    11:00 +22°C° 0 mm 3 m/s 760 mmHg 54%
    12:00 +24°C° 0 mm 3 m/s 759 mmHg 50%
    13:00 +25°C° 0 mm 3 m/s 759 mmHg 47%
    14:00 +25°C° 0 mm 3 m/s 759 mmHg 47%
    15:00 +25°C° 0 mm 3 m/s 759 mmHg 47%
    16:00 +25°C° 0 mm 3 m/s 759 mmHg 46%
    17:00 +24°C° 0 mm 3 m/s 759 mmHg 53%
    18:00 +23°C° 0 mm 2 m/s 759 mmHg 60%
    19:00 +21°C° 0 mm 2 m/s 759 mmHg 66%
    20:00 +19°C° 0 mm 2 m/s 759 mmHg 72%
    21:00 +18°C° 0 mm 2 m/s 760 mmHg 77%
    22:00 +16°C° 0 mm 3 m/s 760 mmHg 82%
    23:00 +16°C° 0 mm 3 m/s 760 mmHg 85%

    25 Junho, Terça-feira

    Tempo Temperatura Precipitação Vento Pressão Humidade
    00:00 +14°C° 0 mm 3 m/s 760 mmHg 88%
    01:00 +15°C° 0 mm 2 m/s 760 mmHg 91%
    02:00 +14°C° 0 mm 2 m/s 760 mmHg 91%
    03:00 +14°C° 0 mm 2 m/s 760 mmHg 91%
    04:00 +14°C° 0 mm 2 m/s 760 mmHg 91%
    05:00 +15°C° 0 mm 2 m/s 760 mmHg 84%
    06:00 +17°C° 0 mm 2 m/s 760 mmHg 78%
    07:00 +19°C° 0 mm 2 m/s 760 mmHg 72%
    08:00 +20°C° 0 mm 2 m/s 760 mmHg 67%
    09:00 +22°C° 0 mm 3 m/s 760 mmHg 62%
    10:00 +24°C° 0 mm 3 m/s 760 mmHg 57%
    11:00 +25°C° 0 mm 3 m/s 760 mmHg 54%
    12:00 +26°C° 0 mm 2 m/s 760 mmHg 51%
    13:00 +27°C° 0 mm 2 m/s 760 mmHg 47%
    14:00 +27°C° 0 mm 3 m/s 760 mmHg 48%
    15:00 +27°C° 0 mm 3 m/s 759 mmHg 48%
    16:00 +27°C° 0 mm 3 m/s 759 mmHg 49%
    17:00 +25°C° 0 mm 3 m/s 759 mmHg 55%
    18:00 +24°C° 0 mm 3 m/s 759 mmHg 62%
    19:00 +23°C° 0 mm 2 m/s 759 mmHg 68%
    20:00 +20°C° 0 mm 2 m/s 759 mmHg 71%
    21:00 +19°C° 0 mm 3 m/s 760 mmHg 74%
    22:00 +18°C° 0 mm 3 m/s 760 mmHg 77%
    23:00 +17°C° 0 mm 2 m/s 760 mmHg 78%
    Mostrar mais